Regional Weather Roundup
Issued by NWS

Home | Current Version | Previous Version | Graphics & Text | Print | Product List | Glossary On
Versions: 1 2 3 4 5 6 7 8 9 10 11 12 13 14 15 16 17 18 19 20 21 22 23 24 25 26 27 28 29 30 31 32 33 34 35 36 37 38 39 40 41 42 43 44 45 46 47 48 49 50
000
ASUS43 KLMK 070510
RWRKY
KENTUCKY REGIONAL WEATHER ROUNDUP
NATIONAL WEATHER SERVICE LOUISVILLE KY
1200 AM EST WED DEC 07 2016

NOTE "FAIR" INDICATES FEW OR NO CLOUDS BELOW 12,000 FEET
WITH NO SIGNIFICANT WEATHER AND/OR OBSTRUCTIONS TO VISIBILITY.

KYZ001>023-026-027-061>063-070>075-070600-
WESTERN AND SOUTH CENTRAL KENTUCKY

CITY           SKY/WX    TMP DP  RH WIND       PRES   REMARKS
PADUCAH        PTCLDY    38  34  85 CALM      30.11R
HENDERSON      CLOUDY    34  28  80 CALM      30.10R
OWENSBORO      CLEAR     36  33  89 NW5       30.11R WCI  32
HOPKINSVILLE   CLOUDY    40  36  86 N3        30.10R
BOWLING GREEN  CLOUDY    40  34  79 NW5       30.10R
GLASGOW        CLOUDY    38  37  93 NW6       30.08R WCI  34
$$

KYZ024-025-028>034-038-045-046-053-070600-
NORTH CENTRAL KENTUCKY

CITY           SKY/WX    TMP DP  RH WIND       PRES   REMARKS
LOUISVILLE/SDF CLOUDY    38  31  76 NW6       30.06R WCI  33
LOUISVILLE/LOU CLOUDY    38  31  76 W6        30.07R WCI  33
FORT KNOX      CLOUDY    37  32  81 NW7       30.04F WCI  32
$$

KYZ035>037-039>044-047>052-055>060-089>105-070600-
NORTHEAST KENTUCKY

CITY           SKY/WX    TMP DP  RH WIND       PRES   REMARKS
LEXINGTON      CLOUDY    40  33  76 NW3       30.04R
COVINGTON      PTCLDY    34  30  85 W10       30.03R WCI  26
FRANKFORT      CLOUDY    39  31  72 NW6       30.04R WCI  35
$$

KYZ054-064>069-076>088-106>120-070600-
SOUTHEAST KENTUCKY

CITY           SKY/WX    TMP DP  RH WIND       PRES   REMARKS
JACKSON        CLOUDY    42  36  79 VRB5      29.99R
LONDON         CLOUDY    42  37  82 NW5       30.02R
SOMERSET       CLOUDY    41  37  87 NW6       30.05R
MIDDLESBORO    CLOUDY    45  38  75 W5        30.01R
MONTICELLO     CLOUDY    42  38  85 NW10      30.06R
$$





USA.gov is the U.S. government's official web portal to all federal, state and local government web resources and services.